{"data":{"norad_id":40484,"intl_designator":"2015-011C","name":"MMS 3","alt_names":[],"object_type":"PAYLOAD","status":"ACTIVE","operator":null,"country":"US","launch_date":"2015-03-13","launch_site_code":"AFETR","launch_vehicle":null,"mission":null,"orbit_class":"UNKNOWN","rcs_meters":2.6555,"size_class":null,"mass_kg":null,"dimensions":null,"purposes":["science"],"wikipedia_slug":null,"has_3d_model":false,"image_url":null,"decayed_at":null,"tle_current":{"epoch":"2026-09-20T06:00:02.000160Z","epoch_age_seconds":35886,"freshness":"FRESH","line1":"1 40484U 15011C   26263.25002315 -.00001960  00000+0  00000+0 0  9990","line2":"2 40484  72.8971 347.7311 8251963 169.4050 276.1119  0.28314085  1392","mean_motion":0.28314085,"eccentricity":0.8251963,"inclination_deg":72.8971,"raan_deg":347.7311,"arg_perigee_deg":169.405,"mean_anomaly_deg":276.1119,"bstar":0,"rev_number":139,"period_min":5085.8079997994,"perigee_km":10746.344917492,"apogee_km":172425.52124764,"semimajor_km":97964.070082565,"source":"CELESTRAK","updated_at":"2026-09-20T09:00:47.149166Z"}}}